Location: East Horndon
(51.5667°N, 0.3500°E)
Time: 08:35:29
(UTC+00:00)

Meteor 1-24 Rocket - Pass Details

Date: 08 November 2025
Orbit: 789 x 925 km, 81.3° (Epoch: 11 December)

Event Time Altitude Azimuth Distance (km) Brightness Sun altitude
Rises 05:25:24 0° 203° (SSW) 3,487 6.7 -15.6°
Reaches altitude 10° 05:27:55 10° 206° (SSW) 2,532 6.0 -15.2°
Maximum altitude 05:33:36 60° 286° (WNW) 980 3.7 -14.3°
Drops below altitude 10° 05:39:06 10° 7° (N) 2,456 6.1 -13.5°
Sets 05:41:32 0° 11° (N) 3,375 6.9 -13.1°
